Regional Weather Roundup
Issued by NWS Charleston, SC

Current Version | Previous Version | Graphics & Text | Print | Product List | Glossary On
Versions: 1 2 3 4 5 6 7 8 9 10 11 12 13 14 15 16 17 18 19 20 21 22 23 24 25 26 27 28 29 30 31 32 33 34 35 36 37 38 39 40 41 42 43 44 45 46 47 48 49 50
000
ASUS42 KCHS 272312
RWRCHS

REGIONAL WEATHER ROUNDUP
NATIONAL WEATHER SERVICE CHARLESTON SC
700 PM EDT WED MAY 27 2015

NOTE: "FAIR" INDICATES FEW OR NO CLOUDS BELOW 12,000 FEET WITH NO
SIGNIFICANT WEATHER AND/OR OBSTRUCTIONS TO VISIBILITY.

NOT ALL STATIONS ARE QUALITY CONTROLLED BY THE NATIONAL
WEATHER SERVICE. USE DATA WITH CAUTION...ESPECIALLY
DEWPOINT OBSERVATIONS.

SCZ027-030-031-034>040-042>050-280000-
...SOUTHEAST SOUTH CAROLINA...

CITY           SKY/WX    TMP DP  RH WIND       PRES   REMARKS
N CHARLESTON   MOSUNNY   79  66  64 SE8       30.20S
WATERFRONT PAR   N/A     79  69  71 SE7       30.18R
MOUNT PLEASANT LGT RAIN  79  68  69 SE6       30.21S
JOHNS ISLAND   PTCLDY    79  70  73 SE9       30.21R
PINOPOLIS        N/A     84  66  54 VRB3      30.11F
MONCKS CORNER  NOT AVBL
SUMMERVILLE    MOCLDY    81  68  65 SE5       30.20S
BEAUFORT MCAS  MOSUNNY   82  67  60 S6        30.20R
BEAUFORT ARPT  FAIR      79  68  69 SE6       30.20R HAZE
HILTON HEAD IS MOSUNNY   79  66  65 SE6       30.21R
WALTERBORO     PTCLDY    81  63  54 S9        30.20F
ALLENDALE      CLOUDY    81  72  74 SE6       30.17F

...SOUTHERN MIDLANDS AND PEE DEE...

CITY           SKY/WX    TMP DP  RH WIND       PRES   REMARKS
GEORGETOWN     NOT AVBL
KINGSTREE      NOT AVBL
ORANGEBURG     PTSUNNY   81  68  64 S6        30.19S
BARNWELL       FAIR      82  68  61 SE8       30.18F
AIKEN          MOCLDY    79  64  61 SE9       30.21R
MANNING        LGT RAIN  72  70  94 CALM      30.21S
COLUMBIA       PTSUNNY   79  70  74 E6        30.16F
SUMTER         PTSUNNY   80  70  73 SE7       30.18S
FLORENCE       PTSUNNY   77  70  79 S9        30.19S
MYRTLE BEACH   MOSUNNY   79  66  65 S14       30.22F
N MYRTLE BEACH MOSUNNY   78  66  66 S10       30.21F

$$

GAZ063-065-086>088-099>101-113>116-118-119-134>141-150-280000-
...SOUTHEAST GEORGIA...

CITY           SKY/WX    TMP DP  RH WIND       PRES   REMARKS
SAVANNAH ARPT  CLOUDY    81  63  54 S10       30.19R
HUNTER AAF     SUNNY     80  67  64 SE8       30.17R
FORT STEWART   SUNNY     81  64  56 SE8       30.17R
STATESBORO     CLOUDY    81  70  68 SE7       30.17S
SYLVANIA       PTCLDY    81  71  71 SE3       30.18S
CLAXTON        MOCLDY    81  68  65 SE6       30.17S

...CSRA...CENTRAL AND FAR SOUTHEAST GEORGIA...

CITY           SKY/WX    TMP DP  RH WIND       PRES   REMARKS
THOMSON        PTSUNNY   85  73  66 NE5       30.19F HX  91
AUGUSTA-BUSH   PTSUNNY   82  69  64 SE9       30.15R
AUGUSTA-DANIEL PTSUNNY   86  67  52 E8        30.16F
SWAINSBORO     MOCLDY    77  72  83 SE5       30.17F
VIDALIA        LGT RAIN  72  70  94 S3        30.17F
EASTMAN        FAIR      82  71  68 SE7       30.16F
HAZLEHURST     MOCLDY    82  69  64 NE6       30.15S
ALMA           PTSUNNY   83  63  50 SE7       30.15R
WAYCROSS       PTSUNNY   83  65  54 E8        30.15S
JESUP          FAIR      84  64  51 SE6       30.18R
BAXLEY         FAIR      84  64  51 SE7       30.16R
BRUNSWICK        N/A     81  61  50 SE10      30.19S
SAINT SIMONS   NOT AVBL

$$

SCZ027-028-034-036>038-045-046-048>050-GAZ119-141-280000-
...LAKE AND SUPPLEMENTAL COASTAL OBSERVATIONS...

STATION/POSITION TIME  TEMP    WIND        PRES    WAVE   SWELL
                       AIR SEA DIR/SP/G            HT/PER HT/PER/DIR
                 (UTC) (F)     (DEG/KT/KT) (MB)    (FT/S) (FT/S/D)
UPR LAKE MARION  NOT AVBL
WINYAH BAY       NOT AVBL
LAKE MURRAY      2200   87     150/  2/  5 1021.0R
ACE BASIN NERRS  NOT AVBL
FORT PULASKI     NOT AVBL
SAPELO ISLAND    NOT AVBL

$$

ANZ835-935-AMZ111-154-330-350-352-354-370-450-454-472-280000-
...C-MAN AND BUOY OBSERVATIONS...

STATION/POSITION TIME  TEMP    WIND        PRES    WAVE   SWELL
                       AIR SEA DIR/SP/G            HT/PER HT/PER/DIR
                 (UTC) (F)     (DEG/KT/KT) (MB)    (FT/S) (FT/S/D)
BUOY 41004       2150   78 78  130/ 10/ 10 1022.4    3/ 7   2/ 7
BUOY 41008       2150   78 80  120/  6/  8 1022.4    3/ 7   3/100/ 7
FOLLY BEACH CMAN 2200   78     130/  9/ 11 1023.0F
CAPERS NEARSHORE NOT AVBL
FRIPP NEARSHORE  NOT AVBL


STATION/POSITION TIME  TEMP    WIND        PRES    WAVE   SWELL
                       AIR SEA DIR/SP/G            HT/PER HT/PER/DIR
                 (UTC) (F)     (DEG/KT/KT) (MB)    (FT/S) (FT/S/D)
5E ST. MARYS GA  NOT AVBL
FRYING PAN BUOY  2150   77 76  150/ 12/ 16 1023.9    3/ 7   2/120/ 7
BUOY 41025       2150   75 77  160/ 16/ 17 1024.0    3/ 8   2/130/ 8
CAPE LOOKOUT NC  2200   74     160/ 13/ 15 1023.6F
BUOY 41002       2150   74 75  100/ 12/ 14 1024.2    4/ 8   3/110/ 8
BUOY 41010       2220   78 80   80/ 14/ 16 1021.6F
ST AUGUSTINE FL  2200   78 81   90/ 11/ 13 1022.3F


$$


USA.gov is the U.S. government's official web portal to all federal, state and local government web resources and services.